LOCATION_NAME,SAMPLE COLLECTION TIME,DOSE EQUIVALENT RATE (nSv/h),GAMMA COUNT RATE R02 (CPM),GAMMA COUNT RATE R03 (CPM),GAMMA COUNT RATE R04 (CPM),GAMMA COUNT RATE R05 (CPM),GAMMA COUNT RATE R06 (CPM),GAMMA COUNT RATE R07 (CPM),GAMMA COUNT RATE R08 (CPM),GAMMA COUNT RATE R09 (CPM),STATUS
MN: ST. PAUL,09/21/2006 23:21:00,,3018.00,432.00,167.00,216.00,236.00,175.00,26.00,39.00,APPROVED
MN: ST. PAUL,09/22/2006 00:22:00,,3035.00,430.00,167.00,215.00,234.00,173.00,25.00,39.00,APPROVED
MN: ST. PAUL,09/22/2006 01:22:00,,3120.00,448.00,174.00,225.00,240.00,178.00,25.00,39.00,APPROVED
MN: ST. PAUL,09/22/2006 02:22:00,,3208.00,466.00,176.00,234.00,246.00,183.00,26.00,39.00,APPROVED
MN: ST. PAUL,09/22/2006 03:22:00,,3271.00,467.00,181.00,237.00,248.00,185.00,26.00,42.00,APPROVED
MN: ST. PAUL,09/22/2006 04:22:00,,3243.00,466.00,181.00,238.00,252.00,183.00,26.00,42.00,APPROVED
MN: ST. PAUL,09/22/2006 05:23:00,,3329.00,487.00,183.00,247.00,257.00,189.00,27.00,42.00,APPROVED
MN: ST. PAUL,09/22/2006 06:23:00,,3251.00,477.00,182.00,237.00,249.00,186.00,27.00,42.00,APPROVED
MN: ST. PAUL,09/22/2006 07:23:00,,3012.00,428.00,167.00,221.00,238.00,175.00,26.00,39.00,APPROVED
MN: ST. PAUL,09/22/2006 08:23:00,,2896.00,412.00,164.00,207.00,229.00,169.00,25.00,38.00,APPROVED
MN: ST. PAUL,09/22/2006 09:23:00,,2863.00,406.00,160.00,202.00,224.00,166.00,25.00,37.00,APPROVED
MN: ST. PAUL,09/22/2006 10:24:00,,3133.00,451.00,173.00,226.00,240.00,177.00,26.00,39.00,APPROVED
MN: ST. PAUL,09/22/2006 11:24:00,,3342.00,486.00,186.00,248.00,262.00,191.00,27.00,43.00,APPROVED
MN: ST. PAUL,09/22/2006 12:24:00,,3447.00,502.00,190.00,256.00,266.00,200.00,28.00,43.00,APPROVED
MN: ST. PAUL,09/22/2006 13:24:00,,3609.00,529.00,200.00,272.00,276.00,205.00,28.00,48.00,APPROVED
MN: ST. PAUL,09/22/2006 14:24:00,,3203.00,463.00,180.00,238.00,247.00,182.00,25.00,41.00,APPROVED
MN: ST. PAUL,09/22/2006 15:25:00,,3028.00,434.00,172.00,221.00,236.00,173.00,25.00,39.00,APPROVED
MN: ST. PAUL,09/22/2006 16:25:00,,3028.00,441.00,171.00,225.00,240.00,178.00,25.00,40.00,APPROVED
MN: ST. PAUL,09/22/2006 17:25:00,,3028.00,451.00,170.00,228.00,243.00,183.00,26.00,42.00,APPROVED
MN: ST. PAUL,09/22/2006 18:25:00,,3229.00,495.00,181.00,258.00,260.00,196.00,27.00,45.00,APPROVED
MN: ST. PAUL,09/25/2006 14:38:00,,2909.00,427.00,167.00,218.00,232.00,176.00,24.00,38.00,APPROVED
MN: ST. PAUL,09/25/2006 15:39:00,,2810.00,400.00,162.00,206.00,227.00,167.00,24.00,37.00,APPROVED
MN: ST. PAUL,09/25/2006 16:39:00,,2738.00,389.00,156.00,191.00,217.00,157.00,27.00,36.00,APPROVED
MN: ST. PAUL,09/25/2006 17:39:00,,2667.00,377.00,156.00,185.00,211.00,156.00,27.00,35.00,APPROVED
MN: ST. PAUL,09/25/2006 18:39:00,,2645.00,370.00,154.00,180.00,209.00,150.00,29.00,32.00,APPROVED
MN: ST. PAUL,09/25/2006 20:40:00,,2620.00,364.00,149.00,176.00,207.00,142.00,33.00,33.00,APPROVED
MN: ST. PAUL,09/25/2006 21:40:00,,2604.00,361.00,152.00,169.00,201.00,143.00,34.00,32.00,APPROVED
MN: ST. PAUL,09/25/2006 22:40:00,,2609.00,365.00,151.00,175.00,206.00,141.00,35.00,31.00,APPROVED
MN: ST. PAUL,09/25/2006 23:40:00,,2621.00,364.00,146.00,170.00,206.00,142.00,34.00,33.00,APPROVED
MN: ST. PAUL,09/26/2006 00:40:00,,2639.00,359.00,148.00,172.00,201.00,143.00,34.00,32.00,APPROVED
MN: ST. PAUL,09/26/2006 01:41:00,,2638.00,361.00,150.00,168.00,203.00,144.00,28.00,31.00,APPROVED
MN: ST. PAUL,09/26/2006 02:41:00,,2654.00,362.00,148.00,170.00,203.00,148.00,26.00,33.00,APPROVED
MN: ST. PAUL,09/26/2006 03:41:00,,2665.00,369.00,150.00,173.00,207.00,150.00,24.00,32.00,APPROVED
MN: ST. PAUL,09/26/2006 04:41:00,,2676.00,370.00,154.00,176.00,207.00,154.00,23.00,34.00,APPROVED
MN: ST. PAUL,09/26/2006 05:41:00,,2710.00,374.00,149.00,182.00,210.00,155.00,24.00,33.00,APPROVED
MN: ST. PAUL,09/26/2006 06:42:00,,2752.00,388.00,153.00,190.00,216.00,159.00,23.00,33.00,APPROVED
MN: ST. PAUL,09/26/2006 07:42:00,,2783.00,391.00,158.00,192.00,219.00,162.00,24.00,36.00,APPROVED
MN: ST. PAUL,09/26/2006 08:42:00,,2818.00,398.00,159.00,197.00,222.00,166.00,23.00,36.00,APPROVED
MN: ST. PAUL,09/26/2006 09:42:00,,2852.00,403.00,162.00,204.00,222.00,167.00,23.00,37.00,APPROVED
MN: ST. PAUL,09/26/2006 10:42:00,,2896.00,414.00,162.00,209.00,227.00,168.00,25.00,36.00,APPROVED
MN: ST. PAUL,09/26/2006 11:43:00,,2930.00,423.00,167.00,216.00,236.00,174.00,26.00,38.00,APPROVED
MN: ST. PAUL,09/26/2006 12:20:00,,2948.00,430.00,166.00,222.00,240.00,178.00,23.00,38.00,APPROVED
MN: ST. PAUL,09/26/2006 13:40:00,,2730.00,375.00,150.00,176.00,212.00,152.00,21.00,32.00,APPROVED
MN: ST. PAUL,09/26/2006 14:40:00,,2798.00,396.00,154.00,195.00,222.00,161.00,24.00,36.00,APPROVED
MN: ST. PAUL,09/26/2006 15:40:00,,2770.00,396.00,156.00,194.00,221.00,165.00,22.00,36.00,APPROVED
MN: ST. PAUL,09/26/2006 16:40:00,,2744.00,390.00,152.00,190.00,216.00,160.00,24.00,35.00,APPROVED
MN: ST. PAUL,09/26/2006 17:40:00,,2741.00,389.00,153.00,188.00,215.00,157.00,27.00,33.00,APPROVED
MN: ST. PAUL,09/26/2006 18:41:00,,2709.00,384.00,154.00,185.00,211.00,158.00,30.00,33.00,APPROVED
MN: ST. PAUL,09/26/2006 20:41:00,,2678.00,386.00,153.00,184.00,216.00,151.00,33.00,35.00,APPROVED
MN: ST. PAUL,09/26/2006 21:41:00,,2705.00,389.00,157.00,188.00,217.00,153.00,34.00,35.00,APPROVED
MN: ST. PAUL,09/26/2006 22:41:00,,2730.00,396.00,158.00,191.00,216.00,157.00,35.00,35.00,APPROVED
MN: ST. PAUL,09/26/2006 23:42:00,,2785.00,409.00,161.00,200.00,222.00,158.00,35.00,36.00,APPROVED
MN: ST. PAUL,09/27/2006 00:42:00,,2791.00,401.00,159.00,197.00,224.00,156.00,36.00,36.00,APPROVED
MN: ST. PAUL,09/27/2006 01:42:00,,2787.00,410.00,159.00,195.00,221.00,159.00,34.00,36.00,APPROVED
MN: ST. PAUL,09/27/2006 02:42:00,,2767.00,399.00,160.00,193.00,217.00,161.00,31.00,34.00,APPROVED
MN: ST. PAUL,09/27/2006 03:42:00,,2782.00,396.00,157.00,191.00,220.00,159.00,30.00,36.00,APPROVED
MN: ST. PAUL,09/27/2006 04:43:00,,2960.00,435.00,164.00,208.00,230.00,165.00,29.00,37.00,APPROVED
MN: ST. PAUL,09/27/2006 05:43:00,,3032.00,439.00,168.00,218.00,236.00,173.00,27.00,39.00,APPROVED
MN: ST. PAUL,09/27/2006 06:43:00,,2937.00,416.00,167.00,210.00,232.00,171.00,26.00,38.00,APPROVED
MN: ST. PAUL,09/27/2006 07:43:00,,2838.00,400.00,160.00,195.00,224.00,165.00,25.00,35.00,APPROVED
MN: ST. PAUL,09/27/2006 08:43:00,,2790.00,391.00,157.00,192.00,217.00,159.00,24.00,33.00,APPROVED
MN: ST. PAUL,09/27/2006 09:44:00,,2738.00,375.00,154.00,182.00,210.00,157.00,22.00,34.00,APPROVED
MN: ST. PAUL,09/27/2006 10:44:00,,2697.00,368.00,152.00,180.00,206.00,153.00,22.00,34.00,APPROVED
MN: ST. PAUL,09/27/2006 12:44:00,,2666.00,357.00,147.00,177.00,205.00,151.00,20.00,31.00,APPROVED
MN: ST. PAUL,09/27/2006 14:45:00,,2658.00,358.00,150.00,169.00,206.00,153.00,21.00,32.00,APPROVED
MN: ST. PAUL,09/27/2006 15:45:00,,2661.00,361.00,147.00,173.00,205.00,148.00,22.00,32.00,APPROVED
MN: ST. PAUL,09/27/2006 16:45:00,,2663.00,359.00,149.00,172.00,206.00,150.00,22.00,33.00,APPROVED
MN: ST. PAUL,09/27/2006 17:45:00,,2641.00,363.00,152.00,171.00,208.00,152.00,22.00,33.00,APPROVED
MN: ST. PAUL,09/27/2006 18:45:00,,2835.00,396.00,156.00,193.00,214.00,159.00,24.00,35.00,APPROVED
MN: ST. PAUL,09/27/2006 19:45:00,,2879.00,394.00,161.00,194.00,218.00,161.00,24.00,36.00,APPROVED
MN: ST. PAUL,09/27/2006 20:46:00,,2676.00,363.00,150.00,176.00,208.00,153.00,24.00,32.00,APPROVED
MN: ST. PAUL,09/27/2006 21:46:00,,2716.00,373.00,154.00,182.00,211.00,154.00,25.00,34.00,APPROVED
MN: ST. PAUL,09/27/2006 22:46:00,,2692.00,365.00,149.00,176.00,206.00,150.00,26.00,32.00,APPROVED
MN: ST. PAUL,09/27/2006 23:46:00,,2643.00,357.00,150.00,169.00,204.00,151.00,24.00,32.00,APPROVED
MN: ST. PAUL,09/28/2006 00:46:00,,2651.00,355.00,148.00,169.00,205.00,148.00,23.00,32.00,APPROVED
MN: ST. PAUL,09/28/2006 01:47:00,,2640.00,355.00,148.00,170.00,204.00,146.00,22.00,31.00,APPROVED
MN: ST. PAUL,09/28/2006 02:47:00,,2657.00,352.00,150.00,170.00,205.00,150.00,22.00,32.00,APPROVED
MN: ST. PAUL,09/28/2006 03:47:00,,2654.00,360.00,150.00,171.00,207.00,147.00,22.00,32.00,APPROVED
MN: ST. PAUL,09/28/2006 04:47:00,,2659.00,353.00,150.00,173.00,203.00,147.00,20.00,32.00,APPROVED
MN: ST. PAUL,09/28/2006 05:47:00,,2652.00,353.00,150.00,167.00,202.00,149.00,21.00,33.00,APPROVED
MN: ST. PAUL,09/28/2006 06:48:00,,2658.00,357.00,148.00,171.00,203.00,151.00,21.00,31.00,APPROVED
MN: ST. PAUL,09/28/2006 07:48:00,,2684.00,362.00,149.00,171.00,205.00,149.00,21.00,32.00,APPROVED
MN: ST. PAUL,09/28/2006 08:48:00,,2657.00,360.00,149.00,170.00,202.00,149.00,20.00,32.00,APPROVED
MN: ST. PAUL,09/28/2006 09:48:00,,2688.00,360.00,148.00,170.00,204.00,149.00,20.00,33.00,APPROVED
MN: ST. PAUL,09/28/2006 10:48:00,,2698.00,364.00,151.00,176.00,207.00,151.00,20.00,32.00,APPROVED
MN: ST. PAUL,09/28/2006 11:49:00,,2682.00,366.00,153.00,177.00,212.00,155.00,21.00,33.00,APPROVED
MN: ST. PAUL,09/28/2006 12:49:00,,2784.00,376.00,152.00,184.00,216.00,154.00,22.00,33.00,APPROVED
MN: ST. PAUL,09/28/2006 13:49:00,,2730.00,369.00,154.00,178.00,211.00,152.00,22.00,33.00,APPROVED
MN: ST. PAUL,09/28/2006 14:49:00,,2692.00,369.00,152.00,182.00,206.00,153.00,20.00,34.00,APPROVED
MN: ST. PAUL,09/28/2006 15:49:00,,2702.00,368.00,152.00,184.00,211.00,153.00,21.00,33.00,APPROVED
MN: ST. PAUL,09/28/2006 16:50:00,,2712.00,377.00,151.00,186.00,209.00,156.00,20.00,35.00,APPROVED
MN: ST. PAUL,09/28/2006 17:50:00,,2728.00,376.00,155.00,188.00,214.00,157.00,22.00,35.00,APPROVED
MN: ST. PAUL,09/28/2006 18:50:00,,2710.00,377.00,151.00,187.00,216.00,158.00,23.00,35.00,APPROVED
MN: ST. PAUL,09/28/2006 19:50:00,,2716.00,380.00,154.00,188.00,214.00,155.00,24.00,34.00,APPROVED
MN: ST. PAUL,09/28/2006 20:50:00,,2739.00,378.00,152.00,189.00,217.00,159.00,23.00,34.00,APPROVED
MN: ST. PAUL,09/28/2006 21:51:00,,2698.00,374.00,156.00,185.00,209.00,156.00,22.00,33.00,APPROVED
MN: ST. PAUL,09/28/2006 22:51:00,,2693.00,367.00,152.00,181.00,209.00,152.00,23.00,34.00,APPROVED
MN: ST. PAUL,09/28/2006 23:51:00,,2693.00,364.00,151.00,178.00,209.00,153.00,22.00,32.00,APPROVED
MN: ST. PAUL,09/29/2006 00:51:00,,2702.00,364.00,149.00,178.00,208.00,152.00,23.00,33.00,APPROVED
MN: ST. PAUL,09/29/2006 02:52:00,,2677.00,366.00,150.00,177.00,210.00,152.00,21.00,33.00,APPROVED
MN: ST. PAUL,09/29/2006 03:52:00,,2705.00,364.00,151.00,174.00,209.00,148.00,21.00,33.00,APPROVED
MN: ST. PAUL,09/29/2006 04:52:00,,2720.00,373.00,150.00,182.00,212.00,152.00,23.00,34.00,APPROVED
MN: ST. PAUL,09/29/2006 05:52:00,,2752.00,385.00,153.00,187.00,213.00,156.00,23.00,33.00,APPROVED
MN: ST. PAUL,09/29/2006 06:52:00,,2794.00,389.00,155.00,192.00,212.00,160.00,21.00,34.00,APPROVED
MN: ST. PAUL,09/29/2006 07:52:00,,2795.00,390.00,160.00,196.00,220.00,159.00,22.00,36.00,APPROVED
MN: ST. PAUL,09/29/2006 08:53:00,,2806.00,392.00,159.00,199.00,223.00,161.00,22.00,37.00,APPROVED
MN: ST. PAUL,09/29/2006 09:53:00,,2859.00,407.00,159.00,206.00,228.00,163.00,24.00,37.00,APPROVED
MN: ST. PAUL,09/29/2006 10:53:00,,2925.00,422.00,166.00,212.00,232.00,175.00,24.00,37.00,APPROVED
MN: ST. PAUL,09/29/2006 11:53:00,,2965.00,438.00,168.00,226.00,237.00,182.00,24.00,39.00,APPROVED
MN: ST. PAUL,09/29/2006 12:53:00,,3004.00,443.00,172.00,227.00,242.00,181.00,24.00,40.00,APPROVED
MN: ST. PAUL,09/29/2006 13:54:00,,3051.00,460.00,175.00,236.00,244.00,183.00,25.00,43.00,APPROVED
MN: ST. PAUL,09/29/2006 14:54:00,,3053.00,460.00,176.00,239.00,249.00,187.00,26.00,41.00,APPROVED
MN: ST. PAUL,09/29/2006 15:54:00,,3031.00,460.00,171.00,240.00,252.00,184.00,26.00,41.00,APPROVED
MN: ST. PAUL,09/29/2006 16:54:00,,2997.00,450.00,169.00,230.00,241.00,179.00,25.00,39.00,APPROVED
MN: ST. PAUL,09/29/2006 17:54:00,,2979.00,441.00,172.00,232.00,239.00,174.00,25.00,40.00,APPROVED
MN: ST. PAUL,09/29/2006 18:55:00,,2977.00,445.00,171.00,232.00,242.00,182.00,29.00,41.00,APPROVED
MN: ST. PAUL,09/29/2006 19:55:00,,3010.00,454.00,171.00,233.00,242.00,183.00,29.00,42.00,APPROVED
MN: ST. PAUL,09/29/2006 20:55:00,,2988.00,456.00,173.00,230.00,244.00,182.00,29.00,40.00,APPROVED
MN: ST. PAUL,09/29/2006 21:55:00,,2941.00,435.00,171.00,222.00,237.00,177.00,30.00,40.00,APPROVED
MN: ST. PAUL,09/29/2006 22:55:00,,2982.00,442.00,169.00,227.00,240.00,177.00,29.00,39.00,APPROVED
MN: ST. PAUL,09/29/2006 23:56:00,,2929.00,427.00,168.00,216.00,237.00,173.00,27.00,38.00,APPROVED
MN: ST. PAUL,09/30/2006 00:56:00,,2877.00,413.00,165.00,207.00,224.00,170.00,27.00,36.00,APPROVED
MN: ST. PAUL,09/30/2006 01:56:00,,2868.00,411.00,163.00,206.00,227.00,168.00,26.00,39.00,APPROVED
MN: ST. PAUL,09/30/2006 02:56:00,,2896.00,417.00,162.00,207.00,227.00,170.00,26.00,37.00,APPROVED
MN: ST. PAUL,09/30/2006 03:56:00,,2897.00,420.00,166.00,211.00,230.00,173.00,25.00,38.00,APPROVED
MN: ST. PAUL,09/30/2006 04:57:00,,2926.00,422.00,165.00,213.00,230.00,172.00,27.00,38.00,APPROVED
MN: ST. PAUL,09/30/2006 05:57:00,,2932.00,424.00,166.00,213.00,235.00,174.00,24.00,38.00,APPROVED
MN: ST. PAUL,09/30/2006 06:57:00,,2944.00,422.00,166.00,219.00,236.00,175.00,24.00,39.00,APPROVED
MN: ST. PAUL,09/30/2006 07:57:00,,2932.00,430.00,167.00,216.00,232.00,173.00,25.00,38.00,APPROVED
MN: ST. PAUL,09/30/2006 08:57:00,,2956.00,430.00,168.00,226.00,237.00,177.00,25.00,40.00,APPROVED
MN: ST. PAUL,09/30/2006 09:58:00,,2995.00,441.00,170.00,229.00,239.00,177.00,25.00,40.00,APPROVED
MN: ST. PAUL,09/30/2006 10:58:00,,3048.00,459.00,174.00,238.00,248.00,184.00,27.00,40.00,APPROVED
MN: ST. PAUL,09/30/2006 11:58:00,,3104.00,473.00,177.00,249.00,254.00,190.00,26.00,43.00,APPROVED
MN: ST. PAUL,09/30/2006 12:58:00,,3175.00,486.00,178.00,256.00,261.00,196.00,26.00,43.00,APPROVED
MN: ST. PAUL,09/30/2006 13:58:00,,3237.00,495.00,184.00,263.00,262.00,197.00,28.00,47.00,APPROVED
MN: ST. PAUL,09/30/2006 14:58:00,,3204.00,495.00,188.00,263.00,262.00,200.00,28.00,44.00,APPROVED
MN: ST. PAUL,09/30/2006 15:59:00,,3078.00,470.00,178.00,248.00,254.00,191.00,28.00,42.00,APPROVED
MN: ST. PAUL,09/30/2006 16:59:00,,2986.00,452.00,174.00,234.00,244.00,183.00,29.00,42.00,APPROVED
MN: ST. PAUL,09/30/2006 17:59:00,,2916.00,438.00,172.00,223.00,235.00,173.00,32.00,39.00,APPROVED
MN: ST. PAUL,09/30/2006 18:59:00,,2824.00,413.00,164.00,210.00,230.00,165.00,33.00,38.00,APPROVED
MN: ST. PAUL,09/30/2006 19:59:00,,2787.00,402.00,159.00,198.00,221.00,158.00,35.00,36.00,APPROVED
MN: ST. PAUL,09/30/2006 21:00:00,,2763.00,390.00,160.00,196.00,219.00,155.00,35.00,35.00,APPROVED
MN: ST. PAUL,09/30/2006 22:00:00,,2724.00,389.00,157.00,189.00,213.00,148.00,34.00,35.00,APPROVED
MN: ST. PAUL,09/30/2006 23:00:00,,2702.00,378.00,156.00,185.00,216.00,151.00,35.00,33.00,APPROVED
MN: ST. PAUL,10/01/2006 00:00:00,,2679.00,374.00,156.00,184.00,214.00,150.00,34.00,34.00,APPROVED
MN: ST. PAUL,10/01/2006 01:00:00,,2691.00,372.00,153.00,182.00,210.00,147.00,32.00,33.00,APPROVED
MN: ST. PAUL,10/01/2006 02:01:00,,2696.00,365.00,155.00,178.00,212.00,152.00,28.00,33.00,APPROVED
MN: ST. PAUL,10/01/2006 03:01:00,,2711.00,378.00,155.00,186.00,212.00,152.00,29.00,33.00,APPROVED
MN: ST. PAUL,10/01/2006 04:01:00,,2760.00,389.00,157.00,191.00,218.00,157.00,26.00,34.00,APPROVED
MN: ST. PAUL,10/01/2006 05:01:00,,2822.00,404.00,161.00,200.00,226.00,168.00,27.00,37.00,APPROVED
MN: ST. PAUL,10/01/2006 06:01:00,,2868.00,417.00,165.00,213.00,231.00,169.00,25.00,38.00,APPROVED
MN: ST. PAUL,10/01/2006 08:02:00,,2905.00,430.00,166.00,217.00,234.00,174.00,25.00,40.00,APPROVED
MN: ST. PAUL,10/01/2006 09:02:00,,2942.00,438.00,171.00,229.00,237.00,178.00,26.00,41.00,APPROVED
MN: ST. PAUL,10/01/2006 10:02:00,,3009.00,458.00,172.00,243.00,249.00,184.00,27.00,43.00,APPROVED
MN: ST. PAUL,10/01/2006 11:02:00,,3064.00,469.00,175.00,251.00,253.00,189.00,26.00,43.00,APPROVED
MN: ST. PAUL,10/01/2006 12:03:00,,3079.00,476.00,179.00,254.00,256.00,196.00,27.00,45.00,APPROVED
MN: ST. PAUL,10/01/2006 13:03:00,,3128.00,490.00,183.00,264.00,262.00,199.00,27.00,44.00,APPROVED
MN: ST. PAUL,10/01/2006 14:03:00,,3136.00,492.00,186.00,263.00,260.00,199.00,28.00,46.00,APPROVED
MN: ST. PAUL,10/01/2006 15:03:00,,3106.00,482.00,181.00,259.00,258.00,196.00,28.00,43.00,APPROVED
MN: ST. PAUL,10/01/2006 16:03:00,,3072.00,471.00,179.00,250.00,255.00,191.00,28.00,44.00,APPROVED
MN: ST. PAUL,10/01/2006 17:04:00,,3018.00,465.00,174.00,237.00,251.00,185.00,32.00,42.00,APPROVED
MN: ST. PAUL,10/01/2006 18:04:00,,2938.00,454.00,169.00,233.00,239.00,174.00,38.00,41.00,APPROVED
MN: ST. PAUL,10/01/2006 19:04:00,,2919.00,446.00,169.00,229.00,242.00,169.00,43.00,40.00,APPROVED
MN: ST. PAUL,10/01/2006 20:04:00,,2908.00,444.00,167.00,225.00,238.00,163.00,45.00,39.00,APPROVED
MN: ST. PAUL,10/01/2006 21:04:00,,2890.00,445.00,171.00,222.00,237.00,163.00,47.00,40.00,APPROVED
MN: ST. PAUL,10/01/2006 22:05:00,,2936.00,459.00,176.00,232.00,246.00,164.00,49.00,42.00,APPROVED
MN: ST. PAUL,10/01/2006 23:05:00,,2968.00,464.00,172.00,236.00,246.00,166.00,51.00,41.00,APPROVED
MN: ST. PAUL,10/02/2006 00:05:00,,2983.00,472.00,177.00,239.00,246.00,168.00,53.00,41.00,APPROVED
MN: ST. PAUL,10/02/2006 01:05:00,,2992.00,476.00,176.00,239.00,248.00,171.00,49.00,42.00,APPROVED
MN: ST. PAUL,10/02/2006 02:05:00,,3012.00,471.00,176.00,235.00,251.00,173.00,45.00,41.00,APPROVED
MN: ST. PAUL,10/02/2006 03:06:00,,3017.00,471.00,179.00,240.00,251.00,176.00,44.00,42.00,APPROVED
MN: ST. PAUL,10/02/2006 04:06:00,,3042.00,476.00,178.00,246.00,255.00,177.00,41.00,43.00,APPROVED
MN: ST. PAUL,10/02/2006 05:06:00,,3064.00,476.00,176.00,247.00,255.00,180.00,40.00,42.00,APPROVED
MN: ST. PAUL,10/02/2006 06:06:00,,3078.00,480.00,183.00,249.00,257.00,188.00,41.00,42.00,APPROVED
MN: ST. PAUL,10/02/2006 07:06:00,,3098.00,489.00,184.00,255.00,259.00,184.00,39.00,44.00,APPROVED
MN: ST. PAUL,10/02/2006 08:07:00,,3133.00,505.00,183.00,262.00,263.00,193.00,39.00,46.00,APPROVED
MN: ST. PAUL,10/02/2006 09:07:00,,3221.00,525.00,190.00,280.00,275.00,204.00,39.00,47.00,APPROVED
MN: ST. PAUL,10/02/2006 10:07:00,,3309.00,548.00,197.00,292.00,281.00,211.00,39.00,50.00,APPROVED
MN: ST. PAUL,10/02/2006 11:07:00,,3319.00,560.00,198.00,304.00,293.00,217.00,37.00,52.00,APPROVED
MN: ST. PAUL,10/02/2006 12:07:00,,3347.00,572.00,204.00,319.00,299.00,225.00,37.00,53.00,APPROVED
MN: ST. PAUL,10/02/2006 14:08:00,,3482.00,616.00,215.00,352.00,320.00,247.00,41.00,59.00,APPROVED
MN: ST. PAUL,10/02/2006 15:08:00,,3593.00,645.00,219.00,365.00,324.00,249.00,43.00,62.00,APPROVED
MN: ST. PAUL,10/02/2006 16:08:00,,3564.00,651.00,219.00,368.00,322.00,246.00,47.00,61.00,APPROVED
MN: ST. PAUL,10/02/2006 17:08:00,,3456.00,617.00,211.00,345.00,316.00,230.00,51.00,58.00,APPROVED
MN: ST. PAUL,10/02/2006 18:08:00,,3344.00,597.00,208.00,325.00,303.00,217.00,56.00,55.00,APPROVED
MN: ST. PAUL,10/02/2006 19:09:00,,3297.00,594.00,204.00,317.00,297.00,211.00,57.00,53.00,APPROVED
MN: ST. PAUL,10/02/2006 20:09:00,,3152.00,561.00,196.00,301.00,290.00,202.00,59.00,52.00,APPROVED
MN: ST. PAUL,10/02/2006 21:09:00,,3026.00,514.00,189.00,280.00,277.00,188.00,60.00,47.00,APPROVED
MN: ST. PAUL,10/02/2006 22:09:00,,2991.00,505.00,183.00,266.00,266.00,179.00,58.00,47.00,APPROVED
MN: ST. PAUL,10/02/2006 23:09:00,,3053.00,518.00,184.00,270.00,276.00,182.00,59.00,46.00,APPROVED
MN: ST. PAUL,10/03/2006 00:10:00,,3077.00,524.00,189.00,275.00,272.00,186.00,57.00,47.00,APPROVED
MN: ST. PAUL,10/03/2006 01:10:00,,3054.00,501.00,183.00,266.00,264.00,184.00,52.00,44.00,APPROVED
MN: ST. PAUL,10/03/2006 02:10:00,,3050.00,493.00,180.00,261.00,262.00,182.00,46.00,44.00,APPROVED
MN: ST. PAUL,10/03/2006 03:10:00,,3048.00,493.00,179.00,257.00,256.00,185.00,43.00,44.00,APPROVED
MN: ST. PAUL,10/03/2006 04:10:00,,3060.00,492.00,182.00,259.00,263.00,187.00,41.00,45.00,APPROVED
MN: ST. PAUL,10/03/2006 05:11:00,,3075.00,496.00,181.00,262.00,263.00,189.00,39.00,46.00,APPROVED
MN: ST. PAUL,10/03/2006 06:11:00,,3083.00,494.00,185.00,264.00,261.00,193.00,39.00,45.00,APPROVED
MN: ST. PAUL,10/03/2006 07:11:00,,3089.00,497.00,186.00,265.00,262.00,194.00,37.00,46.00,APPROVED
MN: ST. PAUL,10/03/2006 08:11:00,,3126.00,505.00,187.00,269.00,269.00,198.00,36.00,44.00,APPROVED
MN: ST. PAUL,10/03/2006 09:11:00,,3133.00,521.00,187.00,279.00,268.00,204.00,35.00,46.00,APPROVED
MN: ST. PAUL,10/03/2006 10:12:00,,3142.00,507.00,189.00,281.00,272.00,203.00,35.00,47.00,APPROVED
MN: ST. PAUL,10/03/2006 11:12:00,,3130.00,505.00,187.00,270.00,266.00,199.00,35.00,47.00,APPROVED
MN: ST. PAUL,10/03/2006 12:11:00,,3131.00,505.00,188.00,275.00,266.00,195.00,35.00,46.00,APPROVED
MN: ST. PAUL,10/03/2006 12:28:00,,2726.00,367.00,150.00,166.00,201.00,144.00,29.00,34.00,APPROVED
MN: ST. PAUL,10/03/2006 13:29:00,,2808.00,390.00,157.00,185.00,215.00,154.00,28.00,35.00,APPROVED
MN: ST. PAUL,10/03/2006 14:29:00,,2886.00,421.00,162.00,197.00,226.00,165.00,29.00,37.00,APPROVED
MN: ST. PAUL,10/03/2006 16:29:00,,2933.00,440.00,167.00,220.00,238.00,175.00,33.00,39.00,APPROVED
MN: ST. PAUL,10/03/2006 17:29:00,,2926.00,450.00,171.00,224.00,241.00,172.00,36.00,39.00,APPROVED
MN: ST. PAUL,10/03/2006 18:30:00,,2962.00,456.00,173.00,227.00,245.00,171.00,40.00,40.00,APPROVED
MN: ST. PAUL,10/03/2006 19:30:00,,2952.00,459.00,170.00,228.00,240.00,169.00,44.00,41.00,APPROVED
MN: ST. PAUL,10/03/2006 20:30:00,,2914.00,452.00,167.00,226.00,244.00,165.00,45.00,41.00,APPROVED
MN: ST. PAUL,10/03/2006 21:30:00,,2906.00,454.00,169.00,224.00,242.00,164.00,48.00,41.00,APPROVED
MN: ST. PAUL,10/03/2006 22:30:00,,2919.00,451.00,169.00,223.00,241.00,161.00,49.00,39.00,APPROVED
MN: ST. PAUL,10/03/2006 23:31:00,,2912.00,450.00,167.00,221.00,240.00,166.00,44.00,40.00,APPROVED
MN: ST. PAUL,10/04/2006 00:31:00,,2860.00,427.00,165.00,215.00,229.00,162.00,43.00,37.00,APPROVED
MN: ST. PAUL,10/04/2006 01:31:00,,2814.00,411.00,164.00,202.00,225.00,159.00,35.00,37.00,APPROVED
MN: ST. PAUL,10/04/2006 02:31:00,,2789.00,403.00,158.00,198.00,221.00,158.00,31.00,35.00,APPROVED
MN: ST. PAUL,10/04/2006 03:31:00,,3019.00,440.00,167.00,217.00,236.00,172.00,31.00,38.00,APPROVED
MN: ST. PAUL,10/04/2006 05:32:00,,2733.00,376.00,155.00,181.00,213.00,156.00,24.00,34.00,APPROVED
MN: ST. PAUL,10/04/2006 06:32:00,,2667.00,364.00,148.00,176.00,209.00,150.00,23.00,32.00,APPROVED
MN: ST. PAUL,10/04/2006 07:32:00,,2659.00,359.00,151.00,173.00,205.00,152.00,22.00,33.00,APPROVED
MN: ST. PAUL,10/04/2006 08:32:00,,2654.00,359.00,148.00,168.00,203.00,148.00,22.00,31.00,APPROVED
MN: ST. PAUL,10/04/2006 09:33:00,,2634.00,354.00,150.00,168.00,202.00,148.00,22.00,30.00,APPROVED
MN: ST. PAUL,10/04/2006 10:33:00,,2640.00,357.00,149.00,170.00,204.00,150.00,22.00,32.00,APPROVED
MN: ST. PAUL,10/04/2006 11:33:00,,2645.00,361.00,149.00,172.00,200.00,151.00,22.00,31.00,APPROVED
MN: ST. PAUL,10/04/2006 12:33:00,,2653.00,356.00,148.00,169.00,204.00,147.00,22.00,32.00,APPROVED
MN: ST. PAUL,10/04/2006 13:33:00,,2645.00,358.00,147.00,170.00,204.00,148.00,22.00,33.00,APPROVED
MN: ST. PAUL,10/04/2006 14:34:00,,2628.00,352.00,151.00,168.00,204.00,149.00,23.00,32.00,APPROVED
MN: ST. PAUL,10/04/2006 15:34:00,,2614.00,356.00,147.00,167.00,197.00,147.00,23.00,32.00,APPROVED
MN: ST. PAUL,10/04/2006 17:34:00,,2602.00,357.00,147.00,169.00,201.00,146.00,23.00,31.00,APPROVED
MN: ST. PAUL,10/04/2006 18:34:00,,2604.00,362.00,149.00,169.00,207.00,144.00,28.00,32.00,APPROVED
MN: ST. PAUL,10/04/2006 19:34:00,,2600.00,360.00,147.00,169.00,202.00,145.00,29.00,31.00,APPROVED
MN: ST. PAUL,10/04/2006 20:35:00,,2597.00,358.00,150.00,169.00,203.00,143.00,33.00,31.00,APPROVED
MN: ST. PAUL,10/04/2006 21:35:00,,2597.00,357.00,148.00,168.00,205.00,139.00,36.00,31.00,APPROVED
MN: ST. PAUL,10/04/2006 22:35:00,,2585.00,354.00,149.00,169.00,203.00,137.00,36.00,31.00,APPROVED
MN: ST. PAUL,10/04/2006 23:35:00,,2584.00,353.00,144.00,169.00,201.00,141.00,35.00,32.00,APPROVED
MN: ST. PAUL,10/05/2006 00:35:00,,2610.00,355.00,146.00,168.00,200.00,141.00,30.00,31.00,APPROVED
MN: ST. PAUL,10/05/2006 01:36:00,,2617.00,351.00,150.00,167.00,198.00,146.00,26.00,32.00,APPROVED
MN: ST. PAUL,10/05/2006 02:36:00,,2620.00,352.00,145.00,168.00,199.00,148.00,24.00,31.00,APPROVED
MN: ST. PAUL,10/05/2006 03:36:00,,2625.00,358.00,148.00,166.00,202.00,150.00,22.00,32.00,APPROVED
MN: ST. PAUL,10/05/2006 04:36:00,,2660.00,364.00,149.00,168.00,200.00,147.00,22.00,32.00,APPROVED